AirNav   Everest Fuels
 
 1002 users online  

9PA9 Lankenau Hospital Heliport
Philadelphia, Pennsylvania, USA

GOING TO PHILADELPHIA?


FAA INFORMATION EFFECTIVE 18 JUNE 2020

Location

FAA Identifier: 9PA9
Lat/Long: 39-59-17.2600N 075-15-34.6000W
39-59.287667N 075-15.576667W
39.9881278,-75.2596111
(estimated)
Elevation: 221 ft. / 67 m (estimated)
Variation: 11W (1985)
From city: 1 mile NW of PHILADELPHIA, PA
Time zone: UTC -4 (UTC -5 during Standard Time)
Zip code: 19096

Heliport Operations

Heliport use: Private use, MEDICAL USE.
Activation date: 09/1975
Control tower: no
ARTCC: NEW YORK CENTER
FSS: WILLIAMSPORT FLIGHT SERVICE STATION
Attendance: UNATNDD
Wind indicator: yes
Segmented circle: no

Heliport Communications

WX ASOS at PHL (7 nm S): PHONE 215-492-9617
WX AWOS-3 at LOM (9 nm N): 118.925 (215-646-1068)
WX ASOS at PNE (13 nm NE): 121.15 (215-677-0146)
WX AWOS-3T at OQN (15 nm W): 121.4 ((610) 692-6190)
WX ASOS at VAY (19 nm E): 119.325 (609-267-1176)

Nearby radio navigation aids

VOR radial/distance  VOR name  Freq  Var
MXEr086/19.4MODENA VORTAC113.2009W
PTWr145/19.7POTTSTOWN VORTAC116.5009W
OODr015/21.2WOODSTOWN VORTAC112.8010W
ARDr235/22.7YARDLEY VOR/DME108.2010W
DQOr051/24.5DUPONT VORTAC114.0010W
VCNr343/30.2CEDAR LAKE VOR/DME115.2010W
GXUr280/30.5MC GUIRE VORTAC110.6012W
RBVr260/37.4ROBBINSVILLE VORTAC113.8010W
CYNr295/39.5COYLE VORTAC113.4010W

 
NDB name  Hdg/Dist  Freq  Var  ID
AMBLER184/8.427512WING .. -. --.
RAINBOW001/34.736311WRNB .-. -. -...

Heliport Services

Runway Information

Helipad H1

Dimensions: 65 x 65 ft. / 20 x 20 m
Surface: asphalt/concrete
Runway edge lights: PERI
Latitude: 39-59.287667N
Longitude: 075-15.576667W
Elevation: 221.0 ft.
Traffic pattern: leftleft
Obstructions: bldg, 250 ft. from runway

Heliport Ownership and Management from official FAA records

Ownership: Privately-owned
Owner: LANKENAU HOSPITAL
100 LANCASTER AVENUE
WYNNEWOOD, PA 19096
Phone (484) 476-6964
Manager: ARMAND ALESSI
100 LANCASTER AVENUE
WYNNEWOOD, PA 19096
Phone (484) 476-6964

Additional Remarks

FOR CD CTC PHILADELPHIA APCH AT 800-354-9884.

Instrument Procedures

There are no published instrument procedures at 9PA9.

Some nearby airports with instrument procedures:

KPHL - Philadelphia International Airport (7 nm S)
KLOM - Wings Field Airport (9 nm N)
KPNE - Northeast Philadelphia Airport (13 nm NE)
KOQN - Brandywine Regional Airport (15 nm W)
N10 - Perkiomen Valley Airport (15 nm NW)
7N7 - Spitfire Aerodrome (16 nm SW)
19N - Camden County Airport (19 nm SE)
KVAY - South Jersey Regional Airport (19 nm E)
17N - Cross Keys Airport (20 nm SE)
 
Loc | Ops | Rwys | IFR | FBO | Links
Com | Nav | Svcs | Stats | Notes
Area around 9PA9 (Lankenau Hospital Heliport)
 
Road maps at: MapQuest Bing Google
 
Aerial photo
No photo
 
Sectional chart

 
Airport distance calculator
Flying to Lankenau Hospital Heliport? Find the distance to fly.

From to 9PA9

Sunrise and sunset
Times for 11-Jul-2020
 Local
(UTC-4)
 Zulu
(UTC)
Morning civil twilight05:1209:12
Sunrise05:4409:44
Sunset20:3000:30
Evening civil twilight21:0201:02

Current date and time
Zulu (UTC)  11-Jul-2020 18:07:54
Local (UTC-4)  11-Jul-2020 14:07:54
 
METAR
KPHL 
7nm S 
111754Z 31010KT 10SM -RA BKN035 BKN050CB BKN080 BKN140 BKN240 28/23 A2969 RMK AO2 RAB43 SLP052 CB OHD MOV NE P0000 60000 T02830228 10294 20250 58009
KLOM 
9nm N 
111755Z AUTO 17011KT 10SM SCT025 SCT033 BKN046 27/24 A2970 RMK AO2 P0001 T02740236 10293 20242 60007
KPNE 
13nm NE 
111754Z 20007KT 10SM FEW034 FEW042 29/22 A2969 RMK AO2 SLP052 T02890222 10300 20239 58013
KOQN 
15nm W 
111755Z AUTO 23005KT 10SM BKN030 BKN037 BKN095 30/22 A2970 RMK AO2
KPTW 
20nm NW 
111754Z AUTO 22005KT 8SM FEW033 FEW095 SCT120 29/21 A2970 RMK AO2 SLP053 T02940211 10294 20228 58012
KVAY 
20nm E 
ASOS 119.325 609-267-1176
111754Z AUTO VRB04KT 10SM CLR 31/22 A2968 RMK AO2 SLP049 T03060217 10306 20250 58012
TAF
KPHL 
7nm S 
111738Z 1118/1224 21008KT P6SM -SHRA VCTS SCT025 BKN050CB TEMPO 1118/1120 2SM +TSRA OVC025CB FM112300 27008KT P6SM SCT050 FM120700 26004KT P6SM SCT250 FM121400 25008KT P6SM SCT050
KPNE 
13nm NE 
111738Z 1118/1218 21008KT P6SM -SHRA VCTS SCT025 BKN050CB TEMPO 1118/1120 2SM +TSRA OVC025CB FM112300 27006KT P6SM SCT050 FM120700 27003KT P6SM SCT250 FM121200 26007KT P6SM SCT050
NOTAMs
Click for the latest NOTAMs
NOTAMs are issued by the DoD/FAA and will open in a separate window not controlled by AirNav.

 

 
 

Would you like to see your business listed on this page?

 If your business provides an interesting product or service to pilots, flight crews, aircraft, or users of the Lankenau Hospital Heliport, you should consider listing it here.  To start the listing process, click on the button below
 
Add a business
 

Other Pages about Lankenau Hospital Heliport

Update a link
 
Copyright © AirNav, LLC. All rights reserved. Privacy Policy  Contact